Terminal Aerodrome Forecast
Issued by NWS Brownsville, TX

Home | Current Version | Previous Version | Text Only | Print | Product List | Glossary On
Versions: 1 2 3 4 5 6 7 8 9 10 11 12
000
FTUS44 KBRO 261100
TAFHRL
TAF
KHRL 261129Z 2612/2712 16007KT P6SM FEW012
     FM261600 15020G26KT P6SM FEW050
     FM270200 14012KT P6SM SKC
     FM270900 15007KT P6SM SKC=

USA.gov is the U.S. government's official web portal to all federal, state and local government web resources and services.